Regional Weather Roundup
Issued by NWS

Home | Current Version | Previous Version | Graphics & Text | Print | Product List | Glossary On
Versions: 1 2 3 4 5 6 7 8 9 10 11 12 13 14 15 16 17 18 19 20 21 22 23 24 25 26 27 28 29 30 31 32 33 34 35 36 37 38 39 40 41 42 43 44 45 46 47 48 49 50
000
ASUS43 KFSD 261902
RWRSD

WEATHER ROUNDUP FOR SOUTH DAKOTA
NATIONAL WEATHER SERVICE SIOUX FALLS SD
200 PM CDT SUN MAR 26 2017

NOTE: "FAIR" INDICATES FEW OR NO CLOUDS BELOW 12,000 FEET WITH NO
SIGNIFICANT WEATHER AND/OR OBSTRUCTIONS TO VISIBILITY.


SDZ001>005-009-010-012>017-262000-
NORTHWEST AND NORTH CENTRAL SOUTH DAKOTA

CITY           SKY/WX    TMP DP  RH WIND       PRES   REMARKS
BUFFALO          N/A     50  40  68 W7        29.87S
FAITH            N/A     50  37  61 MISG      29.93S
MOBRIDGE       CLOUDY    47  36  65 CALM      29.92S
$$

SDZ012>016-024>037-041>051-057-063-072>074-262000-
SOUTHWEST AND SOUTH CENTRAL SOUTH DAKOTA

CITY           SKY/WX    TMP DP  RH WIND       PRES   REMARKS
RAPID CTY ARPT LGT RAIN  43  40  89 N20       29.93S
PIERRE         LGT RAIN  43  38  82 CALM      29.94S
CUSTER         CLOUDY    40  37  89 S5        29.90S
ELLSWORTH AFB  LGT RAIN  42  42 100 N14       29.93S
PHILIP         LGT RAIN  43  40  89 N8        29.95R
PINE RIDGE     PTSUNNY   53  39  59 NE9       29.91R
SPEARFISH      LGT RAIN  39  37  93 N5        29.96S
WINNER         CLOUDY    45  39  79 S5        29.93S
$$

SDZ004>011-016>023-039-040-262000-
NORTHEAST SOUTH DAKOTA

CITY           SKY/WX    TMP DP  RH WIND       PRES   REMARKS
ABERDEEN       CLOUDY    43  35  73 W7        29.95F
WATERTOWN      CLOUDY    41  36  82 NE3       29.93S
BROOKINGS      CLOUDY    39  36  89 NE3       29.93S
SISSETON         N/A     41  39  93 S8        29.93F
$$

SDZ017-020-022-023-036>040-048>070-262000-
SOUTHEAST SOUTH DAKOTA

CITY           SKY/WX    TMP DP  RH WIND       PRES   REMARKS
SIOUX FALLS    CLOUDY    45  38  76 VRB5      29.94R
HURON          CLOUDY    44  37  76 CALM      29.95S
CHAMBERLAIN    CLOUDY    45  40  82 CALM      29.94S
MITCHELL       CLOUDY    45  39  79 VRB5      29.95F
YANKTON        CLOUDY    45  37  76 NW5       29.94F
$$

ABBREVIATIONS USED IN REMARKS
   TC - TEMPERATURE IN CELSIUS
  WCI - WIND CHILL INDEX
   HX - HEAT INDEX
  VSB - VISIBILITY





USA.gov is the U.S. government's official web portal to all federal, state and local government web resources and services.